Weather History for Ladysmith, WI

Change the Weather History Date:

Friday, February 8, 2013

  Actual Average (KRPD) Record (KRPD)
Temperature  
Mean Temperature 12 °F -  
Max Temperature 26 °F 25 °F 46 °F (2002)
Min Temperature -2 °F 7 °F -21 °F (2014)
Degree Days  
Heating Degree Days 53    
Moisture  
Dew Point 7 °F    
Average Humidity 76    
Maximum Humidity 93    
Minimum Humidity 54    
Precipitation  
Precipitation 0.00 in - - ()
Sea Level Pressure  
Sea Level Pressure 30.31 in    
Wind  
Wind Speed 5 mph (NE)    
Max Wind Speed 12 mph    
Max Gust Speed 18 mph    
Visibility 10 miles    
Events Snow    
Averages and records for this station are not official NWS values.
T = Trace of Precipitation, MM = Missing Value Source: NWS Daily Summary

Daily Weather History Graph

Daily Weather History Graph

Search for Another Location

Airport:

Trip Planner

Search our weather history database for the weather conditions in past years. The results will help you decide how hot, cold, wet, or windy it might be!

Date:

Astronomy

Feb. 08, 2013 Rise Set
Actual Time 7:15 AM CST 5:21 PM CST
Civil Twilight 6:44 AM CST 5:52 PM CST
Nautical Twilight 6:09 AM CST 6:27 PM CST
Astronomical Twilight 5:35 AM CST 7:01 PM CST
Moon 5:46 AM CST (2/8) 3:53 PM CST (2/8)
Length of Visible Light 11h 07m
Length of Day
10h 05m
Waning Crescent, 3% of the Moon is Illuminated
Feb 8
Waning Crescent
Feb 10
New
Feb 17
First Quarter
Feb 25
Full
Mar 4
Last Quarter

Hourly Weather History & Observations

Time (CST) Temp. Windchill Dew Point Humidity Pressure Visibility Wind Dir Wind Speed Gust Speed Precip Events Conditions
12:15 AM 21.2 °F 9.5 °F 15.8 °F 80% 30.25 in 10.0 mi NE 11.5 mph - N/A   Overcast
12:35 AM 21.2 °F 9.5 °F 15.8 °F 80% 30.26 in 10.0 mi NE 11.5 mph 16.1 mph N/A   Overcast
12:55 AM 21.2 °F 9.5 °F 14.0 °F 74% 30.25 in 10.0 mi NE 11.5 mph - N/A   Overcast
1:15 AM 21.2 °F 10.1 °F 14.0 °F 74% 30.24 in 10.0 mi NE 10.4 mph 18.4 mph N/A   Overcast
1:35 AM 19.4 °F 10.4 °F 12.2 °F 74% 30.26 in 10.0 mi North 6.9 mph - N/A   Scattered Clouds
1:55 AM 17.6 °F 8.2 °F 12.2 °F 79% 30.25 in 10.0 mi NE 6.9 mph - N/A   Clear
2:15 AM 17.6 °F 9.3 °F 12.2 °F 79% 30.26 in 10.0 mi NNE 5.8 mph - N/A   Scattered Clouds
2:35 AM 15.8 °F 8.6 °F 12.2 °F 86% 30.27 in 10.0 mi NNE 4.6 mph - N/A   Clear
2:55 AM 14.0 °F 8.2 °F 10.4 °F 86% 30.26 in 10.0 mi NE 3.5 mph - N/A   Clear
3:15 AM 14.0 °F 6.5 °F 12.2 °F 93% 30.25 in 10.0 mi ENE 4.6 mph - N/A   Clear
3:55 AM 3.2 °F -4.2 °F -0.4 °F 85% 30.26 in 10.0 mi North 3.5 mph - N/A   Clear
4:15 AM 3.2 °F -7.8 °F -0.4 °F 85% 30.27 in 10.0 mi North 5.8 mph - N/A   Clear
4:35 AM 3.2 °F -6.2 °F -0.4 °F 85% 30.28 in 10.0 mi NNW 4.6 mph - N/A   Clear
4:55 AM 1.4 °F -11.3 °F -2.2 °F 85% 30.28 in 10.0 mi NNW 6.9 mph - N/A   Clear
5:15 AM 3.2 °F -4.2 °F -0.4 °F 85% 30.29 in 10.0 mi WNW 3.5 mph - N/A   Clear
5:35 AM 3.2 °F -7.8 °F -0.4 °F 85% 30.29 in 10.0 mi NNW 5.8 mph - N/A   Clear
5:55 AM 3.2 °F -4.2 °F -0.4 °F 85% 30.30 in 10.0 mi North 3.5 mph - N/A   Clear
6:15 AM -0.4 °F -8.3 °F -4.0 °F 85% 30.31 in 10.0 mi NNW 3.5 mph - N/A   Clear
6:35 AM 1.4 °F -8.3 °F -2.2 °F 85% 30.31 in 10.0 mi North 4.6 mph - N/A   Mostly Cloudy
6:55 AM -0.4 °F -8.3 °F -5.8 °F 78% 30.32 in 10.0 mi North 3.5 mph - N/A   Scattered Clouds
7:15 AM -2.2 °F -10.4 °F -5.8 °F 85% 30.33 in 10.0 mi NW 3.5 mph - N/A   Clear
7:35 AM -0.4 °F - -4.0 °F 85% 30.33 in 10.0 mi Calm Calm - N/A   Mostly Cloudy
7:55 AM -0.4 °F - -4.0 °F 85% 30.34 in 10.0 mi Calm Calm - N/A   Mostly Cloudy
8:15 AM 1.4 °F - -0.4 °F 92% 30.35 in 5.0 mi Calm Calm - N/A   Scattered Clouds
8:35 AM 3.2 °F - -0.4 °F 85% 30.35 in 5.0 mi Calm Calm - N/A Snow Light Snow
8:55 AM 6.8 °F - 3.2 °F 85% 30.35 in 5.0 mi Calm Calm - N/A Snow Light Snow
9:15 AM 10.4 °F - 8.6 °F 92% 30.36 in 7.0 mi Calm Calm - N/A Snow Light Snow
9:35 AM 10.4 °F - 8.6 °F 92% 30.36 in 7.0 mi Calm Calm - N/A Snow Light Snow
9:55 AM 15.8 °F - 14.0 °F 93% 30.36 in 10.0 mi Calm Calm - N/A Snow Light Snow
10:15 AM 19.4 °F - 17.6 °F 93% 30.36 in 10.0 mi Calm Calm - N/A   Overcast
10:35 AM 19.4 °F 11.5 °F 17.6 °F 93% 30.37 in 10.0 mi ENE 5.8 mph - N/A   Overcast
10:55 AM 21.2 °F 14.9 °F 14.0 °F 74% 30.37 in 10.0 mi ENE 4.6 mph - N/A   Scattered Clouds
11:15 AM 21.2 °F 16.4 °F 12.2 °F 68% 30.37 in 1.8 mi NE 3.5 mph - N/A   Haze
11:35 AM 23.0 °F - 12.2 °F 63% 30.36 in 10.0 mi Calm Calm - N/A   Clear
11:55 AM 23.0 °F - 12.2 °F 63% 30.36 in 10.0 mi Calm Calm - N/A   Clear
12:15 PM 23.0 °F - 12.2 °F 63% 30.35 in 10.0 mi Calm Calm - N/A   Clear
12:35 PM 23.0 °F - 12.2 °F 63% 30.35 in 10.0 mi Calm Calm - N/A   Clear
12:55 PM 23.0 °F - 12.2 °F 63% 30.34 in 10.0 mi Calm Calm - N/A   Clear
1:15 PM 24.8 °F - 12.2 °F 59% 30.33 in 10.0 mi Calm Calm - N/A   Clear
1:35 PM 24.8 °F - 12.2 °F 59% 30.33 in 10.0 mi Calm Calm - N/A   Clear
1:55 PM 26.6 °F - 12.2 °F 55% 30.33 in 10.0 mi Calm Calm - N/A   Clear
2:15 PM 26.6 °F - 12.2 °F 55% 30.32 in 10.0 mi Calm Calm - N/A   Clear
2:35 PM 26.6 °F - 12.2 °F 55% 30.32 in 10.0 mi Calm Calm - N/A   Clear
2:55 PM 26.6 °F - 12.2 °F 55% 30.32 in 10.0 mi Calm Calm - N/A   Clear
3:15 PM 26.6 °F - 12.2 °F 55% 30.31 in 10.0 mi Calm Calm - N/A   Clear
3:35 PM 23.0 °F - 12.2 °F 63% 30.31 in 10.0 mi Calm Calm - N/A   Clear
3:55 PM 24.8 °F - 10.4 °F 54% 30.30 in 10.0 mi Calm Calm - N/A   Clear
4:15 PM 23.0 °F - 10.4 °F 59% 30.30 in 10.0 mi Calm Calm - N/A   Clear
4:35 PM 23.0 °F - 10.4 °F 59% 30.30 in 10.0 mi Calm Calm - N/A   Clear
4:55 PM 21.2 °F - 10.4 °F 63% 30.30 in 10.0 mi Calm Calm - N/A   Clear
5:15 PM 21.2 °F 14.9 °F 8.6 °F 58% 30.30 in 10.0 mi SSW 4.6 mph - N/A   Clear
5:35 PM 23.0 °F 18.4 °F 10.4 °F 59% 30.30 in 10.0 mi SSW 3.5 mph - N/A   Clear
5:55 PM 21.2 °F - 10.4 °F 63% 30.29 in 10.0 mi Calm Calm - N/A   Clear
6:15 PM 14.0 °F - 6.8 °F 73% 30.29 in 10.0 mi Calm Calm - N/A   Clear
6:35 PM 14.0 °F - 8.6 °F 79% 30.30 in 10.0 mi Calm Calm - N/A   Clear
6:55 PM 12.2 °F - 8.6 °F 85% 30.30 in 10.0 mi Calm Calm - N/A   Clear
7:15 PM 10.4 °F - 6.8 °F 85% 30.31 in 10.0 mi Calm Calm - N/A   Clear
7:35 PM 10.4 °F 4.0 °F 6.8 °F 85% 30.30 in 10.0 mi SSE 3.5 mph - N/A   Clear
7:55 PM 10.4 °F 4.0 °F 5.0 °F 79% 30.30 in 10.0 mi SE 3.5 mph - N/A   Clear
8:15 PM 10.4 °F 2.2 °F 5.0 °F 79% 30.29 in 10.0 mi ESE 4.6 mph - N/A   Clear
8:35 PM 8.6 °F - 5.0 °F 85% 30.30 in 10.0 mi Calm Calm - N/A   Clear
8:55 PM 10.4 °F 4.0 °F 5.0 °F 79% 30.29 in 10.0 mi SE 3.5 mph - N/A   Clear
9:15 PM 8.6 °F 0.1 °F 5.0 °F 85% 30.29 in 10.0 mi ESE 4.6 mph - N/A   Clear
9:35 PM 5.0 °F -2.1 °F 1.4 °F 85% 30.30 in 10.0 mi SE 3.5 mph - N/A   Clear
9:55 PM 8.6 °F 2.0 °F 3.2 °F 79% 30.29 in 10.0 mi ESE 3.5 mph - N/A   Clear
10:15 PM 8.6 °F 0.1 °F 5.0 °F 85% 30.29 in 10.0 mi ESE 4.6 mph - N/A   Clear
11:15 PM 6.8 °F -2.0 °F 3.2 °F 85% 30.27 in 10.0 mi ESE 4.6 mph - N/A   Clear
11:35 PM 8.6 °F 0.1 °F 3.2 °F 79% 30.28 in 10.0 mi ESE 4.6 mph - N/A   Clear
11:55 PM 10.4 °F 2.2 °F 5.0 °F 79% 30.28 in 10.0 mi SE 4.6 mph - N/A   Clear